QPF
0.02 0.02 0.02 0.03 0.03 0.03 0.04 0.04 0.04 0.04 0.05 0.05 0.06 0.09 0.08 0.06 0.06 0.04 0.04 0.05 0.05 0.05 0.05 0.04 0.03 0.04 0.05 0.05 0.05 0.05 0.04 0.03 0.04 0.03 0.02 0.02 0.04 0.04 0.03 0.04 0.06 0.07 0.08
0.02 0.01 0.02 0.02 0.03 0.03 0.04 0.03 0.03 0.03 0.03 0.03 0.03 0.05 0.05 0.05 0.05 0.03 0.03 0.04 0.05 0.06 0.05 0.06 0.04 0.04 0.03 0.05 0.07 0.06 0.04 0.04 0.05 0.05 0.03 0.03 0.03 0.03 0.03 0.04 0.06 0.08 0.08
0.02 0.01 0.01 0.02 0.04 0.09 0.09 0.05 0.03 0.03 0.03 0.04 0.05 0.05 0.05 0.03 0.03 0.03 0.03 0.03 0.04 0.05 0.06 0.06 0.05 0.04 0.03 0.03 0.05 0.06 0.05 0.04 0.04 0.05 0.05 0.03 0.03 0.02 0.02 0.02 0.03 0.04 0.04
0.04 0.03 0.01 0.01 0.04 0.09 0.10 0.04 0.03 0.02 0.03 0.04 0.04 0.04 0.05 0.04 0.03 0.03 0.04 0.05 0.05 0.05 0.07 0.06 0.06 0.05 0.05 0.05 0.05 0.05 0.04 0.03 0.03 0.06 0.07 0.07 0.05 0.03 0.02 0.01 0.02 0.02 0.02
0.03 0.03 0.02 0.01 0.02 0.04 0.04 0.03 0.03 0.05 0.06 0.07 0.08 0.06 0.05 0.04 0.04 0.05 0.05 0.05 0.06 0.05 0.05 0.04 0.04 0.06 0.08 0.06 0.05 0.04 0.05 0.05 0.04 0.04 0.05 0.07 0.06 0.04 0.02 0.01 0.01 0.01 0.02
0.02 0.02 0.02 0.01 0.00 0.01 0.01 0.03 0.05 0.05 0.07 0.07 0.08 0.10 0.09 0.06 0.04 0.04 0.04 0.05 0.04 0.04 0.03 0.03 0.03 0.05 0.07 0.06 0.06 0.06 0.07 0.06 0.05 0.04 0.04 0.05 0.04 0.05 0.05 0.03 0.02 0.02 0.02
0.01 0.01 0.01 0.00 0.00 0.00 0.01 0.04 0.03 0.02 0.03 0.04 0.05 0.07 0.11 0.11 0.07 0.05 0.05 0.05 0.05 0.04 0.04 0.04 0.04 0.04 0.05 0.07 0.07 0.07 0.08 0.07 0.05 0.04 0.04 0.04 0.04 0.05 0.05 0.04 0.04 0.03 0.02
0.01 0.01 0.01 0.00 0.01 0.01 0.02 0.02 0.02 0.02 0.03 0.04 0.05 0.05 0.07 0.10 0.08 0.06 0.05 0.05 0.04 0.04 0.05 0.06 0.05 0.05 0.04 0.05 0.05 0.06 0.06 0.07 0.06 0.05 0.05 0.05 0.05 0.06 0.06 0.06 0.06 0.04 0.03
0.01 0.01 0.01 0.01 0.01 0.01 0.01 0.01 0.01 0.01 0.02 0.02 0.04 0.04 0.06 0.06 0.04 0.05 0.06 0.06 0.05 0.06 0.07 0.07 0.06 0.04 0.04 0.05 0.06 0.07 0.07 0.06 0.05 0.05 0.05 0.04 0.05 0.06 0.06 0.08 0.08 0.08 0.06
0.00 0.01 0.01 0.01 0.01 0.01 0.01 0.01 0.01 0.01 0.00 0.00 0.01 0.04 0.06 0.04 0.03 0.04 0.06 0.05 0.05 0.06 0.08 0.08 0.08 0.08 0.07 0.08 0.07 0.07 0.06 0.06 0.05 0.05 0.04 0.04 0.05 0.05 0.06 0.06 0.06 0.06 0.07
0.00 0.00 0.00 0.01 0.00 0.00 0.01 0.01 0.01 0.01 0.01 0.01 0.03 0.03 0.03 0.03 0.02 0.03 0.04 0.04 0.03 0.04 0.05 0.07 0.07 0.06 0.07 0.07 0.08 0.07 0.07 0.06 0.05 0.05 0.04 0.03 0.04 0.04 0.04 0.04 0.03 0.04 0.04
0.00 0.00 0.00 0.00 0.00 0.00 0.00 0.01 0.01 0.01 0.01 0.01 0.02 0.02 0.02 0.02 0.02 0.02 0.03 0.03 0.04 0.03 0.03 0.05 0.06 0.05 0.05 0.06 0.08 0.08 0.07 0.07 0.06 0.06 0.05 0.05 0.05 0.05 0.06 0.05 0.03 0.03 0.03
0.00 0.01 0.00 0.00 0.00 0.00 0.00 0.01 0.01 0.02 0.02 0.03 0.03 0.03 0.03 0.02 0.01 0.02 0.03 0.05 0.05 0.04 0.04 0.05 0.05 0.05 0.06 0.08 0.10 0.11 0.09 0.08 0.07 0.07 0.06 0.06 0.05 0.05 0.06 0.05 0.04 0.04 0.04
0.00 0.00 0.00 0.00 0.01 0.00 0.00 0.03 0.08 0.05 0.04 0.04 0.04 0.03 0.03 0.02 0.02 0.02 0.02 0.03 0.03 0.04 0.06 0.07 0.06 0.06 0.05 0.06 0.06 0.07 0.07 0.07 0.08 0.09 0.07 0.05 0.04 0.02 0.03 0.04 0.04 0.05 0.04
0.01 0.01 0.01 0.01 0.01 0.02 0.02 0.05 0.05 0.04 0.04 0.04 0.05 0.05 0.03 0.03 0.02 0.02 0.02 0.02 0.03 0.05 0.05 0.04 0.04 0.05 0.05 0.05 0.07 0.07 0.06 0.07 0.06 0.06 0.06 0.06 0.07 0.07 0.05 0.04 0.03 0.04 0.04
0.01 0.01 0.02 0.02 0.02 0.03 0.03 0.03 0.03 0.05 0.05 0.04 0.04 0.04 0.05 0.04 0.03 0.03 0.03 0.04 0.05 0.06 0.05 0.04 0.04 0.04 0.03 0.04 0.05 0.06 0.06 0.06 0.04 0.04 0.05 0.06 0.10 0.13 0.14 0.12 0.10 0.08 0.07
0.01 0.01 0.02 0.03 0.03 0.03 0.04 0.04 0.04 0.05 0.04 0.04 0.04 0.04 0.05 0.06 0.06 0.05 0.04 0.05 0.05 0.05 0.04 0.04 0.04 0.03 0.03 0.03 0.03 0.04 0.05 0.06 0.05 0.04 0.04 0.05 0.06 0.08 0.10 0.12 0.13 0.13 0.12
0.02 0.02 0.03 0.03 0.04 0.04 0.04 0.04 0.04 0.04 0.05 0.05 0.06 0.05 0.06 0.09 0.10 0.10 0.09 0.08 0.07 0.05 0.04 0.04 0.03 0.02 0.03 0.04 0.03 0.03 0.02 0.04 0.07 0.07 0.07 0.06 0.06 0.07 0.07 0.07 0.08 0.08 0.08
0.03 0.03 0.04 0.04 0.04 0.03 0.04 0.05 0.04 0.04 0.05 0.05 0.05 0.04 0.06 0.08 0.09 0.08 0.08 0.08 0.05 0.03 0.03 0.04 0.04 0.04 0.03 0.04 0.04 0.03 0.02 0.02 0.04 0.06 0.07 0.08 0.09 0.10 0.11 0.10 0.10 0.10 0.10
0.03 0.04 0.05 0.06 0.04 0.03 0.04 0.04 0.03 0.03 0.04 0.05 0.04 0.04 0.04 0.06 0.06 0.05 0.05 0.04 0.03 0.02 0.03 0.03 0.04 0.05 0.05 0.04 0.03 0.03 0.02 0.03 0.04 0.05 0.06 0.09 0.10 0.10 0.09 0.09 0.10 0.12 0.13
0.04 0.05 0.08 0.08 0.05 0.03 0.03 0.02 0.02 0.02 0.02 0.03 0.03 0.04 0.06 0.05 0.05 0.04 0.04 0.04 0.04 0.03 0.03 0.03 0.02 0.03 0.04 0.06 0.06 0.05 0.03 0.04 0.08 0.10 0.09 0.08 0.09 0.08 0.07 0.06 0.05 0.05 0.07
0.05 0.05 0.07 0.07 0.07 0.04 0.03 0.02 0.01 0.01 0.02 0.03 0.04 0.05 0.05 0.05 0.04 0.04 0.04 0.04 0.03 0.02 0.03 0.03 0.02 0.02 0.02 0.03 0.03 0.03 0.02 0.02 0.02 0.03 0.03 0.03 0.03 0.03 0.03 0.02 0.02 0.03 0.03
0.07 0.08 0.08 0.08 0.07 0.04 0.03 0.02 0.02 0.02 0.03 0.03 0.07 0.11 0.10 0.10 0.07 0.04 0.03 0.03 0.02 0.02 0.01 0.02 0.02 0.02 0.02 0.02 0.01 0.01 0.02 0.02 0.02 0.01 0.01 0.01 0.01 0.01 0.01 0.01 0.01 0.01 0.01
0.11 0.12 0.10 0.08 0.06 0.04 0.03 0.03 0.03 0.03 0.04 0.04 0.05 0.10 0.11 0.11 0.09 0.05 0.03 0.02 0.02 0.02 0.01 0.01 0.01 0.01 0.01 0.01 0.02 0.01 0.02 0.02 0.02 0.02 0.01 0.01 0.01 0.01 0.01 0.01 0.01 0.01 0.00
0.07 0.08 0.10 0.11 0.09 0.07 0.04 0.03 0.03 0.03 0.04 0.04 0.03 0.03 0.04 0.06 0.06 0.05 0.03 0.03 0.03 0.03 0.02 0.02 0.02 0.01 0.01 0.02 0.03 0.03 0.03 0.03 0.03 0.03 0.03 0.03 0.02 0.02 0.02 0.02 0.01 0.01 0.00
0.05 0.04 0.04 0.04 0.05 0.06 0.04 0.03 0.03 0.03 0.03 0.03 0.02 0.02 0.03 0.03 0.04 0.04 0.05 0.06 0.05 0.04 0.03 0.03 0.02 0.02 0.02 0.01 0.02 0.01 0.02 0.02 0.03 0.03 0.02 0.03 0.03 0.03 0.03 0.03 0.02 0.02 0.01
MSLP
1013.11 1013.27 1013.47 1013.68 1013.89 1014.10 1014.33 1014.59 1014.90 1015.23 1015.59 1015.93 1016.23 1016.45 1016.58 1016.62 1016.58 1016.50 1016.40 1016.34 1016.34 1016.40 1016.52 1016.70 1016.92 1017.14 1017.36 1017.56 1017.73 1017.88 1018.00 1018.11 1018.18 1018.21 1018.19 1018.10 1017.94 1017.71 1017.42 1017.09 1016.76 1016.47 1016.24
1013.17 1013.36 1013.58 1013.79 1013.99 1014.17 1014.37 1014.62 1014.93 1015.30 1015.71 1016.13 1016.50 1016.78 1016.94 1016.97 1016.88 1016.72 1016.52 1016.36 1016.26 1016.25 1016.33 1016.50 1016.71 1016.95 1017.18 1017.39 1017.57 1017.72 1017.84 1017.94 1018.03 1018.09 1018.11 1018.06 1017.94 1017.74 1017.45 1017.11 1016.74 1016.39 1016.08
1013.34 1013.57 1013.82 1014.05 1014.23 1014.39 1014.55 1014.77 1015.06 1015.43 1015.87 1016.33 1016.74 1017.06 1017.23 1017.25 1017.12 1016.89 1016.62 1016.38 1016.20 1016.13 1016.18 1016.32 1016.53 1016.77 1017.00 1017.20 1017.36 1017.49 1017.59 1017.69 1017.78 1017.86 1017.92 1017.93 1017.87 1017.72 1017.48 1017.16 1016.80 1016.42 1016.07
1013.60 1013.89 1014.18 1014.42 1014.60 1014.73 1014.85 1015.01 1015.26 1015.60 1016.03 1016.49 1016.91 1017.23 1017.41 1017.42 1017.26 1016.99 1016.67 1016.37 1016.15 1016.05 1016.07 1016.20 1016.39 1016.62 1016.83 1017.00 1017.12 1017.21 1017.28 1017.35 1017.43 1017.53 1017.62 1017.69 1017.71 1017.64 1017.47 1017.21 1016.88 1016.51 1016.15
1013.91 1014.26 1014.60 1014.87 1015.04 1015.14 1015.20 1015.30 1015.48 1015.76 1016.13 1016.55 1016.95 1017.27 1017.44 1017.44 1017.27 1016.99 1016.65 1016.34 1016.10 1015.98 1015.98 1016.10 1016.27 1016.47 1016.65 1016.78 1016.85 1016.89 1016.91 1016.94 1017.01 1017.12 1017.25 1017.37 1017.46 1017.47 1017.38 1017.19 1016.92 1016.60 1016.26
1014.21 1014.61 1015.00 1015.30 1015.47 1015.54 1015.55 1015.57 1015.66 1015.86 1016.15 1016.51 1016.87 1017.15 1017.31 1017.31 1017.15 1016.88 1016.56 1016.25 1016.02 1015.90 1015.90 1016.00 1016.15 1016.32 1016.45 1016.53 1016.55 1016.54 1016.51 1016.51 1016.56 1016.67 1016.82 1016.98 1017.13 1017.21 1017.20 1017.09 1016.89 1016.63 1016.35
1014.41 1014.87 1015.31 1015.64 1015.82 1015.87 1015.83 1015.78 1015.78 1015.89 1016.09 1016.37 1016.66 1016.91 1017.06 1017.06 1016.93 1016.68 1016.39 1016.11 1015.90 1015.79 1015.79 1015.87 1015.99 1016.12 1016.21 1016.24 1016.22 1016.15 1016.09 1016.06 1016.10 1016.20 1016.37 1016.56 1016.74 1016.88 1016.93 1016.89 1016.76 1016.57 1016.35
1014.48 1015.00 1015.49 1015.86 1016.05 1016.09 1016.02 1015.91 1015.84 1015.85 1015.97 1016.17 1016.40 1016.61 1016.74 1016.75 1016.64 1016.43 1016.18 1015.93 1015.74 1015.63 1015.62 1015.68 1015.77 1015.86 1015.91 1015.90 1015.84 1015.75 1015.67 1015.63 1015.66 1015.77 1015.94 1016.14 1016.35 1016.51 1016.60 1016.60 1016.53 1016.40 1016.25
1014.40 1014.98 1015.52 1015.93 1016.16 1016.20 1016.11 1015.97 1015.84 1015.78 1015.83 1015.96 1016.14 1016.31 1016.42 1016.44 1016.35 1016.17 1015.95 1015.72 1015.54 1015.42 1015.38 1015.41 1015.46 1015.50 1015.52 1015.49 1015.42 1015.33 1015.25 1015.22 1015.27 1015.38 1015.56 1015.77 1015.98 1016.14 1016.25 1016.27 1016.23 1016.15 1016.07
1014.21 1014.84 1015.43 1015.89 1016.16 1016.23 1016.15 1015.99 1015.84 1015.74 1015.73 1015.81 1015.95 1016.08 1016.18 1016.19 1016.11 1015.94 1015.73 1015.50 1015.31 1015.17 1015.09 1015.06 1015.07 1015.07 1015.06 1015.02 1014.95 1014.89 1014.85 1014.85 1014.93 1015.07 1015.26 1015.47 1015.67 1015.83 1015.92 1015.95 1015.92 1015.87 1015.83
1013.96 1014.65 1015.30 1015.81 1016.12 1016.23 1016.18 1016.04 1015.88 1015.77 1015.74 1015.79 1015.89 1015.99 1016.06 1016.06 1015.96 1015.79 1015.56 1015.31 1015.08 1014.89 1014.75 1014.67 1014.62 1014.58 1014.55 1014.51 1014.47 1014.44 1014.46 1014.52 1014.65 1014.83 1015.04 1015.26 1015.45 1015.59 1015.66 1015.67 1015.63 1015.59 1015.58
1013.73 1014.48 1015.18 1015.74 1016.09 1016.25 1016.25 1016.15 1016.02 1015.92 1015.89 1015.92 1015.99 1016.06 1016.10 1016.06 1015.94 1015.73 1015.47 1015.18 1014.89 1014.64 1014.43 1014.28 1014.17 1014.09 1014.03 1014.00 1013.98 1014.01 1014.08 1014.21 1014.40 1014.62 1014.87 1015.10 1015.29 1015.41 1015.46 1015.45 1015.40 1015.36 1015.36
1013.58 1014.39 1015.13 1015.73 1016.13 1016.34 1016.39 1016.34 1016.26 1016.19 1016.17 1016.19 1016.24 1016.29 1016.29 1016.21 1016.04 1015.79 1015.48 1015.13 1014.77 1014.45 1014.17 1013.94 1013.77 1013.64 1013.56 1013.52 1013.53 1013.59 1013.71 1013.90 1014.14 1014.41 1014.69 1014.95 1015.15 1015.27 1015.31 1015.29 1015.23 1015.17 1015.16
1013.55 1014.40 1015.18 1015.80 1016.24 1016.49 1016.60 1016.61 1016.58 1016.55 1016.55 1016.58 1016.62 1016.64 1016.59 1016.47 1016.25 1015.95 1015.58 1015.17 1014.76 1014.36 1014.01 1013.71 1013.47 1013.29 1013.17 1013.11 1013.12 1013.19 1013.34 1013.57 1013.85 1014.16 1014.47 1014.75 1014.97 1015.11 1015.16 1015.13 1015.07 1015.01 1014.99
1013.64 1014.51 1015.30 1015.93 1016.39 1016.69 1016.85 1016.92 1016.94 1016.97 1017.00 1017.04 1017.07 1017.05 1016.98 1016.81 1016.54 1016.19 1015.77 1015.31 1014.85 1014.40 1013.98 1013.62 1013.32 1013.08 1012.90 1012.80 1012.77 1012.83 1012.97 1013.19 1013.48 1013.81 1014.15 1014.45 1014.70 1014.87 1014.94 1014.94 1014.90 1014.84 1014.81
1013.80 1014.67 1015.45 1016.08 1016.55 1016.87 1017.08 1017.21 1017.30 1017.37 1017.44 1017.49 1017.51 1017.48 1017.37 1017.16 1016.86 1016.47 1016.02 1015.53 1015.03 1014.55 1014.09 1013.68 1013.32 1013.01 1012.77 1012.59 1012.50 1012.49 1012.59 1012.77 1013.03 1013.35 1013.69 1014.02 1014.30 1014.51 1014.63 1014.67 1014.66 1014.63 1014.61
1013.97 1014.82 1015.57 1016.18 1016.65 1016.99 1017.24 1017.43 1017.58 1017.70 1017.81 1017.88 1017.90 1017.85 1017.72 1017.48 1017.16 1016.75 1016.28 1015.79 1015.28 1014.78 1014.30 1013.86 1013.45 1013.08 1012.75 1012.49 1012.30 1012.20 1012.20 1012.31 1012.51 1012.79 1013.11 1013.44 1013.76 1014.01 1014.19 1014.30 1014.35 1014.36 1014.36
1014.11 1014.90 1015.60 1016.18 1016.64 1017.01 1017.30 1017.54 1017.75 1017.92 1018.07 1018.16 1018.18 1018.12 1017.97 1017.72 1017.38 1016.98 1016.52 1016.04 1015.55 1015.06 1014.58 1014.12 1013.67 1013.24 1012.84 1012.48 1012.17 1011.96 1011.84 1011.84 1011.95 1012.16 1012.45 1012.77 1013.10 1013.41 1013.65 1013.83 1013.95 1014.01 1014.06
1014.16 1014.88 1015.52 1016.07 1016.53 1016.91 1017.25 1017.54 1017.80 1018.03 1018.20 1018.31 1018.34 1018.28 1018.12 1017.86 1017.52 1017.12 1016.69 1016.24 1015.78 1015.32 1014.86 1014.40 1013.93 1013.46 1012.99 1012.53 1012.12 1011.78 1011.53 1011.41 1011.41 1011.54 1011.77 1012.07 1012.40 1012.74 1013.04 1013.29 1013.48 1013.61 1013.71
1014.11 1014.76 1015.35 1015.87 1016.33 1016.74 1017.11 1017.46 1017.77 1018.04 1018.24 1018.37 1018.40 1018.33 1018.15 1017.89 1017.56 1017.18 1016.78 1016.36 1015.95 1015.53 1015.11 1014.66 1014.19 1013.69 1013.16 1012.63 1012.12 1011.67 1011.30 1011.06 1010.95 1010.98 1011.14 1011.40 1011.72 1012.07 1012.42 1012.73 1012.98 1013.18 1013.33
1014.00 1014.59 1015.13 1015.64 1016.10 1016.54 1016.96 1017.36 1017.71 1018.01 1018.23 1018.36 1018.39 1018.30 1018.12 1017.85 1017.53 1017.16 1016.79 1016.41 1016.04 1015.66 1015.28 1014.86 1014.40 1013.89 1013.33 1012.75 1012.17 1011.63 1011.17 1010.82 1010.61 1010.54 1010.62 1010.82 1011.11 1011.46 1011.82 1012.16 1012.47 1012.72 1012.93
1013.89 1014.43 1014.95 1015.45 1015.94 1016.41 1016.87 1017.30 1017.69 1018.00 1018.24 1018.36 1018.37 1018.27 1018.07 1017.79 1017.46 1017.10 1016.74 1016.39 1016.06 1015.72 1015.37 1014.98 1014.54 1014.03 1013.47 1012.86 1012.24 1011.64 1011.11 1010.68 1010.38 1010.22 1010.22 1010.35 1010.60 1010.91 1011.26 1011.62 1011.95 1012.25 1012.50
1013.85 1014.37 1014.88 1015.39 1015.90 1016.41 1016.90 1017.36 1017.76 1018.09 1018.31 1018.42 1018.40 1018.27 1018.05 1017.75 1017.40 1017.04 1016.69 1016.35 1016.03 1015.71 1015.38 1015.02 1014.60 1014.11 1013.55 1012.94 1012.30 1011.67 1011.09 1010.60 1010.23 1010.01 1009.92 1009.98 1010.15 1010.41 1010.73 1011.07 1011.40 1011.72 1012.00
1013.93 1014.45 1014.97 1015.51 1016.05 1016.58 1017.09 1017.56 1017.97 1018.28 1018.48 1018.56 1018.52 1018.36 1018.10 1017.77 1017.41 1017.03 1016.67 1016.32 1016.00 1015.68 1015.36 1015.00 1014.58 1014.11 1013.56 1012.96 1012.32 1011.68 1011.08 1010.55 1010.13 1009.83 1009.67 1009.64 1009.73 1009.92 1010.18 1010.48 1010.80 1011.11 1011.42
1014.17 1014.70 1015.26 1015.82 1016.38 1016.93 1017.45 1017.92 1018.31 1018.59 1018.76 1018.81 1018.73 1018.53 1018.24 1017.89 1017.50 1017.10 1016.71 1016.35 1016.00 1015.66 1015.31 1014.94 1014.52 1014.04 1013.50 1012.90 1012.27 1011.63 1011.02 1010.46 1009.99 1009.63 1009.39 1009.28 1009.28 1009.38 1009.56 1009.81 1010.09 1010.39 1010.71
1014.57 1015.13 1015.71 1016.30 1016.87 1017.42 1017.93 1018.38 1018.73 1018.98 1019.11 1019.12 1019.00 1018.78 1018.47 1018.10 1017.69 1017.27 1016.85 1016.45 1016.06 1015.68 1015.29 1014.88 1014.43 1013.93 1013.37 1012.77 1012.14 1011.50 1010.87 1010.29 1009.78 1009.36 1009.05 1008.84 1008.75 1008.76 1008.85 1009.03 1009.26 1009.54 1009.86
Thickness
5784 5782 5780 5776 5772 5768 5764 5762 5759 5756 5754 5750 5748 5745 5744 5744 5745 5745 5745 5745 5744 5743 5742 5742 5741 5741 5740 5739 5739 5738 5737 5736 5736 5734 5732 5734 5736 5737 5737 5737 5737 5736 5736
5783 5782 5779 5776 5772 5768 5765 5762 5760 5758 5755 5753 5750 5748 5746 5745 5745 5745 5745 5745 5745 5744 5743 5742 5741 5740 5739 5738 5738 5737 5735 5735 5735 5732 5728 5725 5728 5733 5736 5736 5736 5736 5735
5783 5781 5779 5776 5773 5770 5767 5765 5761 5759 5757 5754 5751 5749 5746 5744 5744 5744 5744 5745 5745 5744 5743 5743 5742 5740 5740 5738 5738 5737 5735 5733 5733 5733 5729 5723 5721 5726 5731 5733 5733 5733 5733
5787 5783 5780 5777 5774 5773 5770 5767 5763 5760 5757 5755 5751 5748 5744 5741 5742 5743 5743 5744 5744 5744 5743 5742 5741 5740 5739 5738 5738 5737 5735 5733 5731 5731 5731 5730 5728 5723 5722 5727 5729 5730 5730
5790 5786 5783 5780 5778 5775 5771 5767 5764 5760 5758 5755 5752 5748 5745 5744 5743 5743 5742 5742 5743 5743 5743 5742 5741 5740 5739 5738 5737 5736 5735 5733 5732 5730 5729 5727 5726 5725 5721 5719 5722 5724 5725
5793 5789 5786 5782 5779 5776 5772 5768 5764 5761 5759 5756 5753 5750 5746 5744 5742 5742 5741 5741 5741 5742 5742 5742 5741 5739 5738 5737 5736 5735 5734 5733 5732 5731 5729 5727 5725 5723 5721 5718 5718 5718 5720
5794 5789 5785 5781 5778 5775 5773 5769 5765 5761 5760 5757 5754 5751 5748 5745 5743 5741 5740 5739 5739 5739 5740 5740 5740 5739 5738 5737 5735 5734 5733 5732 5731 5730 5729 5728 5727 5726 5723 5719 5716 5715 5715
5795 5791 5788 5784 5780 5777 5774 5770 5766 5762 5760 5757 5754 5751 5748 5745 5743 5742 5741 5739 5739 5739 5740 5739 5739 5737 5737 5736 5734 5733 5732 5731 5729 5729 5727 5726 5726 5725 5723 5720 5715 5711 5710
5796 5792 5789 5785 5782 5779 5775 5772 5767 5763 5760 5758 5754 5751 5748 5745 5742 5741 5740 5739 5738 5738 5738 5737 5736 5735 5734 5733 5731 5730 5729 5728 5727 5726 5725 5724 5724 5723 5722 5720 5717 5712 5706
5796 5793 5790 5786 5783 5780 5776 5772 5768 5764 5761 5758 5754 5751 5748 5745 5743 5741 5739 5737 5737 5737 5735 5735 5733 5732 5731 5730 5728 5727 5725 5724 5723 5723 5722 5721 5720 5719 5718 5716 5714 5712 5708
5796 5793 5790 5787 5783 5779 5775 5771 5768 5764 5761 5757 5754 5751 5748 5745 5742 5740 5738 5736 5735 5734 5732 5731 5730 5728 5727 5725 5724 5723 5721 5720 5719 5719 5718 5716 5716 5714 5713 5712 5710 5707 5704
5797 5794 5790 5785 5781 5777 5773 5770 5767 5764 5761 5757 5753 5750 5747 5744 5741 5738 5736 5734 5733 5731 5730 5728 5726 5725 5723 5722 5720 5719 5717 5716 5714 5714 5713 5712 5711 5709 5708 5706 5704 5702 5700
5794 5791 5787 5783 5779 5775 5772 5768 5766 5762 5760 5756 5752 5748 5745 5742 5740 5737 5735 5732 5730 5728 5726 5725 5722 5721 5719 5717 5716 5714 5713 5711 5710 5709 5708 5706 5705 5703 5702 5700 5698 5696 5694
5791 5788 5784 5780 5777 5774 5770 5767 5763 5761 5758 5754 5750 5746 5743 5740 5738 5735 5733 5730 5727 5725 5722 5720 5718 5716 5715 5713 5711 5709 5708 5706 5705 5704 5703 5701 5700 5698 5696 5694 5692 5690 5687
5789 5786 5782 5778 5774 5771 5768 5766 5762 5759 5755 5751 5747 5744 5742 5738 5735 5732 5729 5726 5724 5721 5718 5716 5713 5712 5710 5708 5706 5705 5703 5701 5699 5698 5697 5695 5694 5693 5690 5689 5686 5683 5680
5788 5785 5781 5777 5773 5769 5766 5763 5760 5757 5753 5748 5744 5742 5739 5735 5732 5728 5725 5721 5719 5716 5714 5711 5709 5706 5705 5703 5701 5699 5697 5695 5693 5691 5690 5689 5687 5685 5683 5682 5679 5677 5673
5787 5783 5780 5777 5773 5768 5764 5760 5756 5754 5750 5745 5742 5738 5734 5731 5727 5723 5719 5716 5713 5711 5708 5705 5703 5701 5699 5697 5696 5694 5691 5689 5687 5685 5683 5682 5679 5677 5675 5673 5671 5668 5665
5785 5782 5778 5775 5771 5767 5762 5757 5753 5749 5745 5741 5738 5735 5730 5726 5722 5718 5714 5711 5707 5704 5701 5699 5697 5695 5693 5691 5690 5688 5686 5683 5680 5678 5676 5674 5671 5670 5667 5665 5662 5659 5656
5784 5780 5777 5773 5768 5763 5759 5754 5749 5745 5741 5737 5734 5730 5725 5721 5716 5712 5708 5705 5702 5698 5695 5693 5691 5689 5686 5684 5683 5681 5679 5675 5672 5670 5668 5666 5664 5662 5660 5657 5653 5650 5647
5779 5775 5772 5767 5762 5758 5754 5749 5743 5739 5736 5733 5729 5725 5720 5715 5710 5706 5702 5698 5695 5691 5688 5686 5683 5682 5679 5677 5675 5673 5671 5668 5665 5662 5660 5658 5656 5653 5651 5648 5645 5641 5638
5772 5769 5766 5760 5755 5752 5748 5742 5738 5734 5732 5729 5724 5719 5715 5710 5705 5700 5696 5692 5688 5684 5681 5678 5675 5673 5671 5669 5667 5665 5663 5660 5657 5654 5651 5649 5646 5644 5641 5639 5635 5632 5629
5764 5762 5757 5752 5749 5746 5742 5736 5732 5730 5727 5723 5718 5713 5708 5704 5699 5694 5689 5685 5681 5677 5673 5670 5667 5665 5662 5660 5658 5656 5654 5651 5648 5645 5642 5639 5637 5634 5631 5628 5625 5623 5620
5756 5753 5749 5744 5740 5737 5735 5730 5727 5724 5720 5715 5710 5706 5701 5697 5692 5687 5682 5678 5674 5669 5666 5663 5660 5657 5654 5652 5650 5648 5645 5642 5639 5636 5633 5631 5628 5625 5622 5618 5616 5613 5610
5748 5745 5741 5736 5730 5728 5727 5724 5721 5717 5712 5707 5702 5698 5693 5688 5683 5679 5675 5671 5666 5663 5659 5656 5652 5649 5646 5644 5641 5639 5636 5634 5631 5628 5625 5622 5618 5615 5612 5608 5605 5602 5599
5739 5737 5733 5729 5725 5722 5718 5715 5712 5709 5704 5699 5694 5690 5685 5680 5675 5670 5665 5662 5658 5655 5652 5649 5646 5642 5639 5636 5633 5631 5628 5625 5623 5619 5616 5612 5609 5605 5602 5599 5595 5592 5589
5729 5727 5724 5721 5716 5714 5710 5706 5704 5701 5696 5690 5685 5681 5677 5672 5667 5662 5656 5652 5649 5647 5644 5641 5637 5634 5631 5628 5625 5622 5619 5616 5613 5611 5607 5603 5599 5596 5593 5590 5586 5583 5579